Weather Roundup
Issued by NWS

Home | Current Version | Previous Version | Graphics & Text | Print | Product List | Glossary Off
Versions: 1 2 3 4 5 6 7 8 9 10 11 12 13 14 15 16 17 18 19 20 21 22 23 24 25 26 27 28 29 30 31 32 33 34 35 36 37 38 39 40 41 42 43 44 45 46 47 48 49 50

000
NZUS93 KARX 291310
HRRWXR

CURRENT HOURLY OBSERVATIONS ACROSS
MUCH OF THE UPPER MISSISSIPPI VALLEY
NATIONAL WEATHER SERVICE LA CROSSE WI
800 AM CDT SUN MAY 29 2016


...SOUTHEAST MINNESOTA...


CITY           SKY/WX    TMP DP  RH WIND       PRES   REMARKS
ROCHESTER      PTSUNNY   62  60  93 W15       29.95R
ROCHESTER/MAYO CLOUDY    62  61  95 W15G21    29.93R
WINONA         CLOUDY    63  59  88 NW6       29.92R
AUSTIN         MOSUNNY   63  57  82 W9        29.95S
ALBERT LEA     MOSUNNY   63  61  94 W8        29.96R
DODGE CENTER   MOSUNNY   61  61 100 W12       29.94S
PRESTON        CLOUDY    61  57  87 W12G17    29.95R
OWATONNA       MOSUNNY   63  59  88 W8        29.94S
FARIBAULT      CLOUDY    63  59  88 W8        29.93R
$$

...ELSEWHERE IN MINNESOTA...


CITY           SKY/WX    TMP DP  RH WIND       PRES   REMARKS
MINNEAPOLIS    CLOUDY    64  58  80 W12       29.90R
INTNL FALLS    LGT RAIN  55  54  96 W6        29.81R FOG
DULUTH         CLOUDY    59  58  96 W10       29.81R
RED WING       CLOUDY    63  61  94 W9        29.89R
REDWOOD FALLS  SUNNY     62  57  83 W12       29.94R
MANKATO        SUNNY     63  57  82 W10       29.94S
WORTHINGTON    SUNNY     60  58  92 SW14      30.02R
FAIRMONT       SUNNY     63  54  72 W10       29.98R
$$

...SOUTHWEST WISCONSIN...


CITY           SKY/WX    TMP DP  RH WIND       PRES   REMARKS
LA CROSSE      PTSUNNY   66  59  78 W13       29.92R
PRAIRIE DU CHI MOSUNNY   66  58  74 W7        29.95R
BOSCOBEL       CLOUDY    66  62  87 SW8       29.94R
LONE ROCK      CLOUDY    66  61  84 W10G16    29.93R
PLATTEVILLE    CLOUDY    64  62  91 W13       29.96R
FORT MC COY    CLOUDY    64  61  91 W7        29.91R
CAMP DOUGLAS   LGT RAIN  63  61  94 W7        29.89R FOG
MAUSTON-NEW LI CLOUDY    64  61  90 SW6       29.89R
VIROQUA        CLOUDY    63  60  91 W10G16    29.93R
WIS DELLS      CLOUDY    64  59  86 SW9       29.91R
$$

...ELSEWHERE IN WISCONSIN...


CITY           SKY/WX    TMP DP  RH WIND       PRES   REMARKS
MILWAUKEE      MOSUNNY   69  62  78 SW12      29.94S
MADISON        PTSUNNY   65  59  81 SW9G18    29.92R
GREEN BAY      SUNNY     69  62  78 SW12      29.88R
EAU CLAIRE     CLOUDY    63  61  93 W9        29.87R
BLACK RVR FLS  CLOUDY    64  63  97 W7        29.89R
MEDFORD        CLOUDY    60  60 100 W6        29.86R
WAUSAU         CLOUDY    66  60  81 SW6       29.84R
WIS RAPIDS     CLOUDY    65  59  81 SW10      29.88R
MARSHFIELD     RAIN      62  59  90 W8        29.86R FOG
RICE LAKE      CLOUDY    61  58  90 CALM      29.88R
$$

...NORTHEAST IOWA...


CITY           SKY/WX    TMP DP  RH WIND       PRES   REMARKS
WATERLOO       MOSUNNY   64  59  83 W12       29.99R
DUBUQUE        CLOUDY    64  60  87 W10       29.98R
DECORAH        PTSUNNY   64  61  88 W6G13     29.95R
MASON CITY     SUNNY     63  60  90 W13       30.00R
CHARLES CITY   SUNNY     64  63  94 W10       29.98R
OELWEIN        MOSUNNY   64  63  94 W14       30.00R
$$

...ELSEWHERE IN IOWA...


CITY           SKY/WX    TMP DP  RH WIND       PRES   REMARKS
DES MOINES     MOSUNNY   64  57  78 W6        30.05R
IOWA CITY      SUNNY     66  60  81 W14       30.02R
FORT DODGE     SUNNY     63  57  82 W9        30.04R
MARSHALLTOWN   SUNNY     64  61  90 W12       30.02R
CEDAR RAPIDS   PTSUNNY   65  62  90 W14       30.01R
$$

...NORTHERN ILLINOIS...


CITY           SKY/WX    TMP DP  RH WIND       PRES   REMARKS
CHICAGO-OHARE  MOSUNNY   70  62  76 SW13      29.98S
CHICAGO-MIDWAY MOSUNNY   72  61  68 SW12      29.99S
MOLINE         PTSUNNY   68  59  73 W10       30.01R
ROCKFORD       SUNNY     69  60  73 SW13G21   29.98S
PEORIA         SUNNY     69  61  75 SW9       30.03R
$$

NOTE: "FAIR" INDICATES FEW OR NO CLOUDS BELOW 12,000 FEET WITH NO
SIGNIFICANT WEATHER AND/OR OBSTRUCTIONS TO VISIBILITY. WIND
SPEEDS ARE IN MILES-PER-HOUR.




USA.gov is the U.S. government's official web portal to all federal, state and local government web resources and services.